Location: East Irvine
(33.6759°N, 117.7598°W)
Time: 00:34:40
(UTC+00:00)

YAOGAN 1 - Pass Details

Date: 15 November 2025
Orbit: 605 x 607 km, 97.8° (Epoch: 07 December)

Event Time Altitude Azimuth Distance (km) Brightness Sun altitude
Rises 03:02:09 0° 189° (S) 2,849 6.1 -27.8°
Reaches altitude 10° 03:04:31 10° 199° (SSW) 1,949 5.4 -28.3°
Maximum altitude 03:08:17 31° 262° (W) 1,064 4.3 -29.1°
Drops below altitude 10° 03:12:05 10° 326° (NW) 1,960 5.4 -29.9°
Sets 03:14:28 0° 336° (NNW) 2,868 6.2 -30.4°
